Saginaw, MI

8:31 PM EST on November 20, 2017 (GMT -0500)
MBS International

Weather History for KMBS - January, 2015

Change the Weather History Date:

Tuesday, January 20, 2015

  Actual Average Record
Temperature  
Mean Temperature 26 °F 22 °F  
Max Temperature 29 °F 29 °F 42 °F (2006)
Min Temperature 23 °F 15 °F 0 °F (2004)
Degree Days  
Heating Degree Days 39    
Month to date heating degree days 907  
Since 1 July heating degree days 3416  
Cooling Degree Days 0    
Month to date cooling degree days 0  
Year to date cooling degree days 0  
Moisture  
Dew Point 19 °F    
Average Humidity 75    
Maximum Humidity 81    
Minimum Humidity 68    
Precipitation  
Precipitation 0.04 in 0.05 in 0.19 in (2006)
Month to date precipitation 0.84 1.19  
Year to date precipitation 0.84 1.19  
Snow  
Snow 1.10 in - - ()
Month to date snowfall 8.0  
Since 1 July snowfall 11.8  
Snow Depth 2.00 in    
Sea Level Pressure  
Sea Level Pressure 30.02 in    
Wind  
Wind Speed 7 mph (ENE)    
Max Wind Speed 12 mph    
Max Gust Speed 13 mph    
Visibility 8 miles    
Events Snow    
T = Trace of Precipitation, MM = Missing Value Source: NWS Daily Summary

Daily Weather History Graph

Daily Weather History Graph

Search for Another Location

Airport or City:

Trip Planner

Search our weather history database for the weather conditions in past years. The results will help you decide how hot, cold, wet, or windy it might be!

Date:

Astronomy

Jan. 20, 2015 Rise Set
Actual Time 8:03 AM EST 5:31 PM EST
Civil Twilight 7:32 AM EST 6:02 PM EST
Nautical Twilight 6:57 AM EST 6:38 PM EST
Astronomical Twilight 6:22 AM EST 7:12 PM EST
Moon 7:44 AM EST (1/20) 6:09 PM EST (1/20)
Length of Visible Light 10h 30m
Length of Day
9h 28m
New Moon, 0% of the Moon is Illuminated
Jan 20
New Moon
Jan 26
First Quarter
Feb 3
Full
Feb 11
Last Quarter
Feb 18
New

Hourly Weather History & Observations

Time (EST) Temp. Windchill Dew Point Humidity Pressure Visibility Wind Dir Wind Speed Gust Speed Precip Events Conditions
12:53 AM 26.1 °F 21.9 °F 18.0 °F 71% 29.99 in 10.0 mi NNE 3.5 mph - N/A   Overcast
1:53 AM 26.1 °F - 19.0 °F 75% 29.99 in 10.0 mi Calm Calm - N/A   Overcast
2:53 AM 26.1 °F - 19.0 °F 75% 29.99 in 10.0 mi Calm Calm - N/A   Overcast
3:53 AM 26.1 °F 19.4 °F 19.9 °F 78% 29.98 in 10.0 mi North 5.8 mph - N/A   Overcast
4:44 AM 25.0 °F 16.3 °F 19.9 °F 81% 29.95 in 10.0 mi NNE 8.1 mph - N/A   Overcast
4:53 AM 25.0 °F 16.3 °F 19.9 °F 81% 29.97 in 10.0 mi NE 8.1 mph - N/A   Overcast
5:53 AM 24.1 °F 14.4 °F 19.0 °F 81% 29.97 in 7.0 mi NNE 9.2 mph - 0.00 in Snow Light Snow
6:11 AM 24.1 °F 15.2 °F 19.0 °F 81% 29.95 in 2.0 mi NE 8.1 mph - 0.00 in Snow Light Snow
6:20 AM 24.1 °F 14.4 °F 19.0 °F 81% 29.94 in 3.0 mi NE 9.2 mph - 0.00 in Snow Light Snow
6:31 AM 24.1 °F 14.4 °F 19.0 °F 81% 29.94 in 6.0 mi NE 9.2 mph - 0.00 in Snow Light Snow
6:53 AM 23.0 °F 13.9 °F 19.0 °F 85% 29.98 in 8.0 mi NE 8.1 mph - 0.00 in   Overcast
7:53 AM 24.1 °F 17.0 °F 19.9 °F 84% 30.00 in 2.0 mi NE 5.8 mph - 0.00 in Snow Light Snow
8:51 AM 24.8 °F 17.9 °F 19.4 °F 80% 29.98 in 1.8 mi NE 5.8 mph - 0.00 in Snow Light Snow
8:53 AM 24.1 °F 18.2 °F 19.0 °F 81% 30.01 in 1.5 mi ENE 4.6 mph - 0.00 in Snow Light Snow
9:26 AM 24.1 °F 17.0 °F 19.0 °F 81% 29.99 in 0.8 mi ENE 5.8 mph - 0.00 in Snow Light Snow
9:53 AM 24.1 °F 16.0 °F 19.9 °F 84% 30.03 in 1.5 mi ENE 6.9 mph - 0.01 in Snow Light Snow
10:02 AM 24.1 °F 16.0 °F 19.9 °F 84% 30.00 in 1.5 mi ENE 6.9 mph - 0.00 in Snow Light Snow
10:53 AM 25.0 °F 16.3 °F 19.0 °F 78% 30.04 in 2.0 mi ENE 8.1 mph - 0.00 in Snow Light Snow
11:50 AM 26.6 °F 18.2 °F 19.4 °F 74% 30.02 in 10.0 mi East 8.1 mph - 0.00 in   Overcast
11:53 AM 26.1 °F 18.4 °F 19.9 °F 78% 30.05 in 10.0 mi ENE 6.9 mph - 0.00 in   Mostly Cloudy
12:18 PM 26.1 °F 18.4 °F 19.9 °F 78% 30.01 in 10.0 mi ENE 6.9 mph - N/A   Mostly Cloudy
12:53 PM 27.0 °F 18.7 °F 19.0 °F 72% 30.04 in 10.0 mi East 8.1 mph - N/A   Clear
1:53 PM 28.0 °F 20.8 °F 19.9 °F 72% 30.04 in 10.0 mi East 6.9 mph - N/A   Scattered Clouds
2:02 PM 28.0 °F 20.8 °F 19.9 °F 72% 30.01 in 10.0 mi East 6.9 mph - N/A   Mostly Cloudy
2:53 PM 28.0 °F 20.0 °F 19.9 °F 72% 30.04 in 10.0 mi NE 8.1 mph - N/A   Overcast
3:53 PM 27.0 °F 18.0 °F 19.9 °F 75% 30.04 in 10.0 mi NNE 9.2 mph - N/A   Overcast
4:53 PM 27.0 °F 18.0 °F 19.9 °F 75% 30.06 in 10.0 mi NE 9.2 mph - N/A   Overcast
5:53 PM 26.1 °F 16.2 °F 19.9 °F 78% 30.08 in 10.0 mi NE 10.4 mph - N/A   Overcast
6:53 PM 26.1 °F 18.4 °F 21.0 °F 81% 30.10 in 10.0 mi ENE 6.9 mph - N/A   Overcast
7:53 PM 25.0 °F 14.8 °F 19.9 °F 81% 30.10 in 10.0 mi ENE 10.4 mph - N/A   Overcast
8:53 PM 25.0 °F 16.3 °F 19.9 °F 81% 30.10 in 10.0 mi ENE 8.1 mph - N/A   Overcast
9:53 PM 25.0 °F 15.5 °F 19.0 °F 78% 30.09 in 10.0 mi ENE 9.2 mph - N/A   Overcast
10:53 PM 25.0 °F 16.3 °F 19.0 °F 78% 30.09 in 10.0 mi ESE 8.1 mph - N/A   Overcast
11:53 PM 25.0 °F 19.3 °F 19.0 °F 78% 30.11 in 10.0 mi ENE 4.6 mph - N/A   Overcast